Location: Sungai Kasap
(2.6333°N, 113.7333°E)
Time: 05:19:08
(UTC+00:00)

Daily predictions for brighter satellites

Satellite Brightness Start Highest point End
(mag) Time Altitude Azimuth Time Altitude Azimuth Time Altitude Azimuth
ERS-2 3.1 10:48:26 10° NE 10:51:30 26° ESE 10:54:33 10° SSE
Cosmos 2297 Rocket 3.9 10:51:16 10° ESE 10:52:19 10° ESE 10:53:22 10° E
Cosmos 1626 Rocket 4.2 10:48:19 10° NNE 10:52:21 35° E 10:56:25 10° SSE
Cosmos 1703 3.5 10:49:07 10° NNE 10:52:49 45° E 10:56:32 10° SSE
ARIANE 5 R/B 3.3 10:49:38 10° WSW 10:53:07 63° S 11:11:12 11° E
SAR-Lupe-4 4.2 10:51:29 10° NE 10:54:43 33° ESE 10:57:58 10° SSE
H-2A R/B 3.1 10:52:53 10° S 10:56:44 56° WSW 11:00:29 10° NNW
USA 267 4.2 10:50:53 10° SSE 10:57:10 49° SW 11:03:27 10° NW
Cosmos 1689 Rocket 2.1 10:54:57 10° NNE 10:57:38 46° E 11:00:20 10° S
ARGOS 4.1 11:02:11 10° SE 11:06:36 26° ENE 11:10:59 10° NNE
Okean-O 3.8 11:04:04 10° SE 11:07:30 22° ENE 11:10:55 10° NNE
SAR-Lupe-1 3.9 11:06:39 10° NNE 11:10:11 70° ESE 11:13:45 10° S
Cosmos 2322 Rocket 3.3 11:08:07 10° NNE 11:12:34 23° ENE 11:15:39 15° ESE
Cosmos 1328 3.8 11:09:11 10° N 11:13:01 53° E 11:16:49 10° SSE
USA 276 2.8 11:11:35 10° NW 11:14:41 54° SW 11:17:47 10° SSE
COSMOS 2487 4.3 11:13:13 10° SW 11:16:19 33° WNW 11:19:24 10° NNW
Cosmos 2058 Rocket 3.8 11:13:44 10° SSE 11:17:35 30° E 11:21:23 10° NNE
H-2A R/B 2.0 11:12:47 10° SSE 11:17:55 60° ENE 11:22:52 10° N
Ariane H10 3.0 11:13:38 10° W 11:19:09 85° N 11:20:36 25° E
ARIANE 5 R/B 3.6 02:29:48 10° W 11:24:30 90° SSE 11:27:38 21° E
Cosmos 2034 Rocket 4.0 11:20:49 10° S 11:26:58 84° W 11:33:10 10° N
SJ-11-01 4.3 11:23:27 10° SSE 11:28:08 62° ENE 11:32:49 10° N
SL-19 R/B 4.3 11:26:00 10° S 11:29:29 76° WSW 11:33:30 10° NNW
BREEZE-M DEB (TANK) 2.3 11:27:44 10° SSW 11:30:12 59° ESE 11:36:40 10° NE
DMSP B5D2-2 4.1 11:26:08 10° N 11:31:24 85° WNW 11:36:42 10° SSW
Okean O Rocket 4.5 11:35:14 10° SW 11:38:06 17° WSW 11:40:59 10° WNW
CZ-4 R/B 1.7 11:37:42 10° S 11:41:51 71° W 11:46:01 10° NNW
Meteor 1-11 4.2 11:41:44 10° N 11:47:24 88° W 11:53:02 10° S
Cosmos 1184 Rocket 2.7 11:44:58 10° N 11:48:09 80° W 11:48:38 60° SSW
GPS 2-15 Rocket1 3.8 11:45:15 10° NW 11:49:42 40° NNE 11:50:41 36° NE
Nadezhda 4 Rocket 4.1 11:44:31 10° NNE 11:50:28 49° E 11:53:14 30° SE
Cosmos 1441 Rocket 3.2 11:46:35 10° N 11:50:32 85° W 11:52:27 29° S
ARIANE 5 R/B 2.6 11:48:44 10° W 11:50:25 36° W 11:50:25 36° W
Lacrosse 4 Rocket 3.9 11:48:48 10° WNW 11:51:47 20° WSW 11:54:44 10° SSW
Cosmos 2360 Rocket 3.1 11:47:28 10° NNE 11:51:22 28° ENE 11:51:22 28° ENE
YAOGAN 1 3.0 11:49:32 10° S 11:53:48 60° WSW 11:58:03 10° NNW
ARIANE 5 R/B 3.8 11:52:28 10° WSW 11:56:07 29° S 11:56:17 28° S
